Franklin, PA

11:25 AM EST on December 14, 2019 (GMT -0500)
Venango Regional

Weather History for KFKL - October, 2019

Change the Weather History Date:

Saturday, October 26, 2019

  Actual Average Record
Temperature  
Mean Temperature 45 °F -  
Max Temperature 51 °F 59 °F 80 °F (1963)
Min Temperature 39 °F 35 °F 17 °F (1933)
Degree Days  
Heating Degree Days 20    
Moisture  
Dew Point 44 °F    
Average Humidity 95    
Maximum Humidity 100    
Minimum Humidity 80    
Precipitation  
Precipitation 0.44 in - - ()
Sea Level Pressure  
Sea Level Pressure 30.17 in    
Wind  
Wind Speed 3 mph (East)    
Max Wind Speed 21 mph    
Max Gust Speed 28 mph    
Visibility 4 miles    
Events Fog , Rain    
Averages and records for this station are not official NWS values.
T = Trace of Precipitation, MM = Missing Value Source: NWS Daily Summary

Daily Weather History Graph

Daily Weather History Graph

Search for Another Location

Airport or City:

Astronomy

Oct. 26, 2019 Rise Set
Actual Time 7:43 AM EDT 6:22 PM EDT
Civil Twilight 7:15 AM EDT 6:50 PM EDT
Nautical Twilight 6:42 AM EDT 7:23 PM EDT
Astronomical Twilight 6:10 AM EDT 7:55 PM EDT
Moon 5:34 AM EDT (10/26) 5:59 PM EDT (10/26)
Length of Visible Light 11h 35m
Length of Day
10h 39m
Waning Crescent, 3% of the Moon is Illuminated
Oct 26
Waning Crescent
Oct 27
New
Nov 4
First Quarter
Nov 12
Full
Nov 19
Last Quarter

Hourly Weather History & Observations

Time (EDT) Temp. Windchill Dew Point Humidity Pressure Visibility Wind Dir Wind Speed Gust Speed Precip Events Conditions
12:56 AM 45.0 °F - 44.1 °F 97% 30.24 in 9.0 mi Calm Calm - N/A   Mostly Cloudy
1:08 AM 44.6 °F - 44.6 °F 100% 30.22 in 7.0 mi Calm Calm - N/A   Scattered Clouds
1:33 AM 44.6 °F - 44.6 °F 100% 30.22 in 1.5 mi Calm Calm - N/A   Partly Cloudy
1:35 AM 44.6 °F - 42.8 °F 93% 30.22 in 0.8 mi Calm Calm - N/A   Partly Cloudy
1:41 AM 42.8 °F - 42.8 °F 100% 30.22 in 0.5 mi Calm Calm - N/A Fog Fog
1:46 AM 42.8 °F - 42.8 °F 100% 30.22 in 1.0 mi Calm Calm - N/A   Mostly Cloudy
1:50 AM 44.6 °F - 44.6 °F 100% 30.22 in 2.0 mi Calm Calm - N/A   Mostly Cloudy
1:56 AM 44.1 °F - 44.1 °F 100% 30.24 in 5.0 mi Calm Calm - N/A   Mostly Cloudy
2:08 AM 44.6 °F 43.1 °F 42.8 °F 93% 30.21 in 6.0 mi NW 3.5 mph - N/A   Scattered Clouds
2:43 AM 44.6 °F - 42.8 °F 93% 30.21 in 1.8 mi Calm Calm - N/A   Clear
2:47 AM 44.6 °F - 42.8 °F 93% 30.21 in 0.8 mi Calm Calm - N/A   Clear
2:50 AM 44.6 °F - 42.8 °F 93% 30.21 in 0.2 mi Calm Calm - N/A Fog Fog
2:56 AM 44.1 °F - 43.0 °F 96% 30.23 in 0.2 mi Calm Calm - N/A Fog Fog
3:00 AM 44.6 °F - 42.8 °F 93% 30.21 in 0.8 mi Calm Calm - N/A   Mist
3:02 AM 44.6 °F - 42.8 °F 93% 30.21 in 2.0 mi Calm Calm - N/A   Partly Cloudy
3:15 AM 44.6 °F - 42.8 °F 93% 30.21 in 0.8 mi Calm Calm - N/A   Mist
3:17 AM 42.8 °F - 42.8 °F 100% 30.21 in 0.5 mi Calm Calm - N/A Fog Fog
3:19 AM 42.8 °F - 42.8 °F 100% 30.21 in 0.2 mi Calm Calm - N/A Fog Fog
3:27 AM 42.8 °F - 41.0 °F 93% 30.21 in 0.5 mi Calm Calm - N/A Fog Fog
3:41 AM 41.0 °F - 41.0 °F 100% 30.21 in 0.2 mi Calm Calm - N/A Fog Fog
3:56 AM 41.0 °F - 39.9 °F 96% 30.24 in 0.2 mi Calm Calm - N/A Fog Fog
4:32 AM 39.2 °F - 39.2 °F 100% 30.22 in 0.5 mi Calm Calm - N/A Fog Fog
4:36 AM 41.0 °F - 39.2 °F 93% 30.22 in 0.2 mi Calm Calm - N/A Fog Fog
4:56 AM 42.1 °F - 41.0 °F 96% 30.24 in 0.5 mi Calm Calm - N/A Fog Fog
4:59 AM 42.8 °F - 41.0 °F 93% 30.22 in 1.0 mi Calm Calm - N/A   Overcast
5:03 AM 42.8 °F - 41.0 °F 93% 30.22 in 2.0 mi Calm Calm - N/A   Overcast
5:12 AM 39.2 °F - 39.2 °F 100% 30.22 in 0.5 mi Calm Calm - N/A Fog Fog
5:21 AM 41.0 °F - 39.2 °F 93% 30.22 in 0.5 mi Calm Calm - N/A Fog Fog
5:32 AM 42.8 °F 41.1 °F 42.8 °F 100% 30.22 in 0.8 mi East 3.5 mph - N/A   Mostly Cloudy
5:38 AM 42.8 °F 41.1 °F 42.8 °F 100% 30.23 in 0.2 mi East 3.5 mph - N/A Fog Fog
5:56 AM 42.1 °F 40.2 °F 42.1 °F 100% 30.26 in 0.2 mi East 3.5 mph - N/A Fog Fog
6:56 AM 43.0 °F 39.5 °F 42.1 °F 97% 30.24 in 0.2 mi ENE 5.8 mph - N/A Fog Fog
7:56 AM 43.0 °F 40.3 °F 42.1 °F 97% 30.24 in 0.2 mi NE 4.6 mph - N/A Fog Fog
8:36 AM 42.8 °F 40.1 °F 42.8 °F 100% 30.23 in 0.8 mi ESE 4.6 mph - N/A   Overcast
8:39 AM 42.8 °F 41.1 °F 42.8 °F 100% 30.23 in 1.2 mi East 3.5 mph - N/A   Overcast
8:56 AM 43.0 °F 38.8 °F 42.1 °F 97% 30.25 in 2.0 mi East 6.9 mph - N/A   Overcast
9:03 AM 42.8 °F 38.6 °F 42.8 °F 100% 30.22 in 1.8 mi ENE 6.9 mph - N/A   Overcast
9:14 AM 42.8 °F 39.3 °F 42.8 °F 100% 30.22 in 2.5 mi ENE 5.8 mph - N/A   Overcast
9:56 AM 43.0 °F 38.8 °F 43.0 °F 100% 30.24 in 4.0 mi East 6.9 mph - N/A   Overcast
10:17 AM 44.6 °F 40.7 °F 42.8 °F 93% 30.21 in 6.0 mi East 6.9 mph - N/A   Overcast
10:54 AM 44.6 °F 40.7 °F 42.8 °F 93% 30.20 in 9.0 mi East 6.9 mph - N/A   Overcast
10:56 AM 45.0 °F 42.6 °F 43.0 °F 93% 30.23 in 9.0 mi East 4.6 mph - N/A   Overcast
11:16 AM 46.4 °F 41.5 °F 42.8 °F 87% 30.18 in 10.0 mi East 10.4 mph - N/A   Scattered Clouds
11:56 AM 48.0 °F - 44.1 °F 86% 30.20 in 10.0 mi East 6.9 mph - N/A   Clear
12:56 PM 51.1 °F - 45.0 °F 80% 30.18 in 10.0 mi ESE 8.1 mph - 0.00 in Rain Light Rain
1:56 PM 51.1 °F - 46.0 °F 83% 30.15 in 10.0 mi East 5.8 mph - 0.00 in Rain Light Rain
2:56 PM 51.1 °F - 48.0 °F 89% 30.12 in 10.0 mi East 6.9 mph - 0.01 in Rain Light Rain
3:56 PM 51.1 °F - 48.9 °F 92% 30.09 in 10.0 mi ESE 9.2 mph - 0.01 in Rain Light Rain
4:56 PM 51.1 °F - 48.9 °F 92% 30.07 in 7.0 mi ESE 16.1 mph 19.6 mph 0.03 in Rain Light Rain
5:12 PM 50.0 °F - 48.2 °F 94% 30.04 in 6.0 mi ESE 11.5 mph - 0.01 in Rain Rain
5:24 PM 50.0 °F - 48.2 °F 94% 30.04 in 7.0 mi ESE 11.5 mph - 0.02 in Rain Light Rain
5:56 PM 50.0 °F - 48.9 °F 96% 30.06 in 4.0 mi SE 12.7 mph 20.7 mph 0.08 in Rain Rain
6:56 PM 50.0 °F - 48.0 °F 93% 30.02 in 9.0 mi ESE 13.8 mph 20.7 mph 0.04 in Rain Light Rain
7:56 PM 50.0 °F - 48.0 °F 93% 30.03 in 7.0 mi SE 15.0 mph 23.0 mph 0.04 in Rain Light Rain
8:56 PM 50.0 °F - 48.0 °F 93% 30.01 in 10.0 mi SE 20.7 mph 26.5 mph 0.06 in Rain Light Rain
9:56 PM 50.0 °F - 48.0 °F 93% 29.98 in 8.0 mi SE 17.3 mph 21.9 mph 0.14 in Rain Light Rain
10:56 PM 50.0 °F - 48.0 °F 93% 29.92 in 10.0 mi SE 17.3 mph - 0.03 in Rain Light Rain
11:51 PM 51.8 °F - 48.2 °F 88% 29.87 in 10.0 mi SE 17.3 mph 27.6 mph 0.00 in Rain Light Rain
11:56 PM 51.1 °F - 48.9 °F 92% 29.88 in 10.0 mi SE 18.4 mph 25.3 mph 0.00 in Rain Light Rain